This demonstration page uses our WeatherBlox Daily Observations layout. Learn more.

Left ArrowRight Arrow

Hourly Observations for May 4, 2021

Temp ( °F °C ) Dew Point ( °F °C ) Humidity (%) Winds ( mph kmh ) Pressure ( in mb ) Visibility ( mi km ) Precip ( " mm )
12:53 am 00:53 Clear 69 20.6 42 5.6 38 38 NW 5 7 29.96 1014 10 16 0.00 0.00
1:53 am 01:53 Clear 68 20 43 6.1 40 40 NW 7 11 29.95 1014 10 16 0.00 0.00
2:53 am 02:53 Clear 68 20 43 6.1 40 40 undefined N/A 29.95 1014 10 16 0.00 0.00
3:53 am 03:53 Clear 66 18.9 43 6.1 43 43 NW 8 13 29.95 1014 10 16 0.00 0.00
4:53 am 04:53 Clear 67 19.4 42 5.6 41 41 N 9 15 29.95 1014 10 16 0.00 0.00
5:53 am 05:53 Clear 67 19.4 42 5.6 41 41 NNW 12 19 29.96 1015 10 16 0.00 0.00
6:53 am 06:53 Sunny 67 19.4 43 6.1 42 42 NNW 12 19 29.96 1015 10 16 0.00 0.00
7:53 am 07:53 Sunny 69 20.6 44 6.7 41 41 NNW 13 20 29.98 1015 10 16 0.00 0.00
8:53 am 08:53 Sunny 73 22.8 43 6.1 34 34 NNW 16 26 29.98 1015 10 16 0.00 0.00
9:53 am 09:53 Sunny 75 23.9 42 5.6 31 31 NNW 13 20 29.97 1015 10 16 0.00 0.00
10:53 am 10:53 Sunny 77 25 42 5.6 29 29 N 15 24 29.96 1015 10 16 0.00 0.00
11:53 am 11:53 Sunny 80 26.7 42 5.6 26 26 NNW 10 17 29.95 1014 10 16 0.00 0.00
12:53 pm 12:53 Sunny 82 27.8 43 6.1 25 25 WNW 7 11 29.91 1013 10 16 0.00 0.00
1:53 pm 13:53 Sunny 84 28.9 41 5 22 22 NW 7 11 29.89 1012 10 16 0.00 0.00
2:53 pm 14:53 Sunny 86 30 39 3.9 19 19 VRB 7 11 29.88 1012 10 16 0.00 0.00
3:53 pm 15:53 Sunny 90 32.2 35 1.7 14 14 VRB 6 9 29.85 1011 10 16 0.00 0.00
4:53 pm 16:53 Sunny 89 31.7 33 0.6 14 14 NE 6 9 29.83 1010 10 16 0.00 0.00
5:53 pm 17:53 Sunny 90 32.2 34 1.1 14 14 VRB 3 6 29.82 1010 10 16 0.00 0.00
6:53 pm 18:53 Sunny 88 31.1 35 1.7 15 15 E 3 6 29.81 1010 10 16 0.00 0.00
7:53 pm 19:53 Sunny 81 27.2 42 5.6 25 25 Calm 29.82 1010 10 16 0.00 0.00
8:53 pm 20:53 Clear 73 22.8 43 6.1 34 34 W 3 6 29.84 1011 10 16 0.00 0.00
9:53 pm 21:53 Clear 71 21.7 46 7.8 41 41 NNW 7 11 29.87 1012 10 16 0.00 0.00
10:53 pm 22:53 Clear 69 20.6 45 7.2 42 42 N 5 7 29.88 1012 10 16 0.00 0.00
11:53 pm 23:53 Clear 70 21.1 42 5.6 37 37 Calm 29.89 1012 10 16 0.00 0.00

Powered by AerisWeather